sat.trackr.live / text

‹ back to catalog

STARLINK-31671

NORAD 59516 · 2024-073F

PAYLOAD ACTIVE UNKNOWN

§ Identity

Operator
Country
US
Launch date
2024-04-17
Launch site
AFETR
Launch vehicle
Mass (kg)
RCS (m²)

Purposes: comms

External: N2YO · Heavens-Above · Gunter

§ Orbital elements

Epoch: 2026-09-21T03:13:35.596128Z

Period
94.27 min
Inclination
43.0030°
Eccentricity
0.0001179
Mean motion
15.27577724 rev/d
Perigee alt
482.2 km
Apogee alt
483.9 km
Semi-major
6,861.2 km
B*
1.0233e-5
RAAN
294.4794°
Arg perigee
272.4701°
Mean anomaly
87.6016°
Rev number
13,606

§ Raw data

STARLINK-316711 59516U 24073F   26264.13443977  .00000019  00000+0  10233-4 0  99922 59516  43.0030 294.4794 0001179 272.4701  87.6016 15.27577724136069

JSON: /api/v1/satellites/59516 · /tle

For live sub-satellite position, see the globe view (requires WebGL).

§ Visibility from observer

Set your observer location to see the next 7 days of passes ≥ 10°. The values pass through the URL so the page stays shareable.

No JS? Fill the form by hand. The geolocation button needs JavaScript.